Location: Frankfurt am Main
(50.1109°N, 8.6821°E)
Time: 15:19:34
(UTC+02:00)

N. Korean satellite - Visible Passes

Search period start: 18 September 2019 00:00
Search period end: 28 September 2019 00:00
Orbit: 455 x 509 km, 97.2° (Epoch: 17 September)

Date Brightness Start Highest point End Pass type
(mag) Time Alt. Az. Time Alt. Az. Time Alt. Az.
18 Sep 10.3 06:17:33 10° ENE 06:18:36 11° E 06:19:38 10° ESE visible
21 Sep 9.7 06:34:08 10° NE 06:36:30 17° E 06:38:51 10° SE visible
25 Sep 9.9 06:26:54 10° NE 06:28:54 15° E 06:30:53 10° SE visible
26 Sep 10.7 19:50:05 10° WSW 19:50:54 11° W 19:51:42 10° WNW visible
